Regional Weather Roundup
Issued by NWS

Home | Current Version | Previous Version | Graphics & Text | Print | Product List | Glossary On
Versions: 1 2 3 4 5 6 7 8 9 10 11 12 13 14 15 16 17 18 19 20 21 22 23 24 25 26 27 28 29 30 31 32 33 34 35 36 37 38 39 40 41 42 43 44 45 46 47 48 49 50
000
ASUS43 KIND 231259
RWRIN

WEATHER ROUNDUP FOR INDIANA
NATIONAL WEATHER SERVICE INDIANAPOLIS IN
800 AM EST FRI FEB 23 2018

NOTE: "FAIR" INDICATES FEW OR NO CLOUDS BELOW 12,000 FEET WITH NO
SIGNIFICANT WEATHER AND/OR OBSTRUCTIONS TO VISIBILITY.

* - STATION DOES NOT REPORT WEATHER SUCH AS PRECIPITATION OR FOG.

+ - STATION NOT QUALITY CONTROLLED BY THE NATIONAL WEATHER SERVICE.
    USE DATA WITH CAUTION...ESPECIALLY DEWPOINT AND RELATIVE
    HUMIDITY OBSERVATIONS.

INZ001>003-010>013-019-020-231400-
NORTHWEST INDIANA

CITY           SKY/WX    TMP DP  RH WIND       PRES   REMARKS
GARY /AIRPORT/ CLOUDY    41  41 100 S10       30.11R
MONTICELLO +   DRIZZLE   40  39  95 CALM      30.12R
RENSSELAER +   CLOUDY    39  36  87 S3        30.13F FOG
VALPARAISO     CLOUDY    40  39  97 S7        30.12S FOG     WCI  35

$$

LMZ046-743>745-231400-
SOUTHERN LAKE MICHIGAN

STATION/POSITION TIME  TEMP    WIND        PRES    WAVE
                       AIR SEA DIR/SP/G            HT
                 (UTC) (F)     (DEG/KT/KT) (MB)    (FT)
BURNS HARBOR     1240   40     170/ 12/ 17 1020.0F
MICHIGAN CITY    1230   39     140/ 14/ 16   N/A

$$

INZ004-005-014>016-021>024-231400-
NORTH CENTRAL INDIANA

CITY           SKY/WX    TMP DP  RH WIND       PRES   REMARKS
ELKHART        RAIN      37  37 100 CALM      30.13R
GOSHEN         LGT RAIN  38  37  97 S7        30.13S FOG     WCI  33
PERU/GRISSOM   LGT RAIN  42  42 100 SE8       30.10F FOG
SOUTH BEND     LGT RAIN  38  37  97 SE8       30.13R FOG     WCI  32
WARSAW +       LGT RAIN  37  37 100 MISG      30.12R

$$

INZ006>009-017-018-025>027-231400-
NORTHEAST INDIANA

CITY           SKY/WX    TMP DP  RH WIND       PRES   REMARKS
AUBURN +       RAIN      36  36 100 E5        30.13F WCI  32
FORT WAYNE     LGT RAIN  39  39 100 E5        30.13F VSB 1/4 WCI  36
KENDALLVILLE + LGT RAIN  36  36 100 SE12      30.11F WCI  28

$$

INZ028-029-035-036-043>045-051>053-231400-
WEST CENTRAL INDIANA

CITY           SKY/WX    TMP DP  RH WIND       PRES   REMARKS
GREENCASTLE +  CLOUDY    55  54  94 S14       30.13R
LAFAYETTE      LGT RAIN  44  44 100 W7        30.14R FOG
TERRE HAUTE    LGT RAIN  55  54  96 W15       30.16R FOG

$$

INZ030>032-037>040-046>048-054>057-064-065-231400-
CENTRAL INDIANA

CITY           SKY/WX    TMP DP  RH WIND       PRES   REMARKS
COLUMBUS       LGT RAIN  54 N/A N/A S13       30.17S FOG
GREENWOOD *+   CLOUDY    50 -41   2 S14       30.15S VSB 1
INDIANAPOLIS   CLOUDY    51  51 100 S12       30.14R
-EAGLE CREEK   CLOUDY    50  49  96 S6        30.12S FOG
KOKOMO +       RAIN      44  44 100 S9        30.11F FOG
MT COMFORT *+  CLOUDY    50  50 100 S14       30.14R VSB 1/2
SHELBYVILLE    LGT RAIN  54  52  93 S12       30.15R

$$

INZ033-034-041-042-049-050-058-059-231400-
EAST CENTRAL INDIANA

CITY           SKY/WX    TMP DP  RH WIND       PRES   REMARKS
MUNCIE         CLOUDY    51  49  92 S9        30.12S
RICHMOND +     FOG       46  46 100 S14       30.18R VSB 1/2

$$

INZ060-061-067>069-081>083-085>088-231400-
SOUTHWEST INDIANA

CITY           SKY/WX    TMP DP  RH WIND       PRES   REMARKS
EVANSVILLE     LGT RAIN  58  58 100 SW14      30.20R FOG
HUNTINGBURG +  RAIN      60  59  96 SW12      30.20R FOG

$$

INZ062-063-066-070>080-084-089>092-231400-
SOUTH CENTRAL AND SOUTHEAST INDIANA

CITY           SKY/WX    TMP DP  RH WIND       PRES   REMARKS
BLOOMINGTON    CLOUDY    57  56  96 S12       30.15S
FRENCH LICK *+ CLOUDY    57 N/A N/A S7        30.19R
SEYMOUR +      LGT RAIN  55  55 100 S9        30.19R

$$





USA.gov is the U.S. government's official web portal to all federal, state and local government web resources and services.